Location: Julian California
(33.0790°N, 116.6010°W)
Time: 06:15:46
(UTC-07:00)

Gbstr 26 Del rocket - Pass Details

Date: 19 May 2017
Orbit: 494 x 1265 km, 51.8° (Epoch: 28 May)

Event Time Altitude Azimuth Distance (km) Brightness Sun altitude
Rises 22:47:34 0° 315° (NW) 4,127 8.4 -30.2°
Reaches altitude 10° 22:50:22 10° 317° (NW) 3,208 7.6 -30.5°
Maximum altitude 22:58:27 73° 42° (NE) 1,313 4.5 -31.3°
Enters shadow 22:59:27 66° 88° (E) 1,359 4.5 -31.4°
